Time,TemperatureF,DewpointF,PressureIn,WindDirection,WindDirectionDegrees,WindSpeedMPH,WindSpeedGustMPH,Humidity,HourlyPrecipIn,Conditions,Clouds,dailyrainin,SoftwareType,DateUTC
2013-08-01 00:02:00,84.0,60.0,29.86,SW,231,2.0,6.0,45,0.00,,,0.00,,2013-08-01 05:02:00,
2013-08-01 00:23:00,83.0,62.0,29.86,SW,236,2.0,6.0,50,0.00,,,0.00,,2013-08-01 05:23:00,
2013-08-01 00:33:00,82.0,65.0,29.87,WSW,246,2.0,7.0,56,0.00,,,0.00,,2013-08-01 05:33:00,
2013-08-01 00:43:00,82.0,65.0,29.87,WSW,246,2.0,7.0,56,0.00,,,0.00,,2013-08-01 05:43:00,
2013-08-01 00:53:00,81.0,66.0,29.86,WSW,249,3.0,6.0,61,0.00,,,0.00,,2013-08-01 05:53:00,
2013-08-01 01:02:00,81.0,68.0,29.86,West,280,2.0,7.0,64,0.00,,,0.00,,2013-08-01 06:02:00,
2013-08-01 01:12:00,81.0,68.0,29.86,West,280,2.0,7.0,64,0.00,,,0.00,,2013-08-01 06:12:00,
2013-08-01 01:22:00,80.0,68.0,29.86,West,270,2.0,7.0,66,0.00,,,0.00,,2013-08-01 06:22:00,
2013-08-01 01:32:00,80.0,68.0,29.86,WSW,255,2.0,7.0,68,0.00,,,0.00,,2013-08-01 06:32:00,
2013-08-01 01:42:00,80.0,68.0,29.86,WSW,255,2.0,7.0,68,0.00,,,0.00,,2013-08-01 06:42:00,
2013-08-01 01:53:00,80.0,69.0,29.86,SW,224,3.0,6.0,70,0.00,,,0.00,,2013-08-01 06:53:00,
2013-08-01 02:02:00,80.0,70.0,29.86,WSW,256,2.0,6.0,71,0.00,,,0.00,,2013-08-01 07:02:00,
2013-08-01 02:12:00,80.0,70.0,29.86,WSW,256,2.0,6.0,71,0.00,,,0.00,,2013-08-01 07:12:00,
2013-08-01 02:23:00,79.0,69.0,29.85,SW,230,3.0,9.0,72,0.00,,,0.00,,2013-08-01 07:23:00,
2013-08-01 02:32:00,79.0,70.0,29.85,WSW,252,2.0,5.0,73,0.00,,,0.00,,2013-08-01 07:32:00,
2013-08-01 02:43:00,79.0,70.0,29.85,WSW,252,2.0,5.0,73,0.00,,,0.00,,2013-08-01 07:43:00,
2013-08-01 02:55:00,78.0,68.0,29.85,West,269,3.0,7.0,72,0.00,,,0.00,,2013-08-01 07:55:00,
2013-08-01 03:03:00,78.0,68.0,29.85,West,269,3.0,7.0,72,0.00,,,0.00,,2013-08-01 08:03:00,
2013-08-01 03:15:00,78.0,68.0,29.85,West,269,3.0,7.0,72,0.00,,,0.00,,2013-08-01 08:15:00,
2013-08-01 04:58:00,76.0,65.0,29.86,WSW,255,2.0,5.0,70,0.00,,,0.00,,2013-08-01 09:58:00,
2013-08-01 05:07:00,76.0,66.0,29.86,SSW,210,2.0,5.0,72,0.00,,,0.00,,2013-08-01 10:07:00,
2013-08-01 05:24:00,76.0,67.0,29.85,SW,234,2.0,6.0,73,0.00,,,0.00,,2013-08-01 10:24:00,
2013-08-01 05:51:00,75.0,67.0,29.87,SSW,194,0.0,3.0,77,0.00,,,0.00,,2013-08-01 10:51:00,
2013-08-01 06:12:00,75.0,69.0,29.88,North,352,0.0,2.0,81,0.00,,,0.00,,2013-08-01 11:12:00,
2013-08-01 06:17:00,75.0,69.0,29.88,North,352,0.0,2.0,81,0.00,,,0.00,,2013-08-01 11:17:00,
2013-08-01 06:32:00,75.0,69.0,29.87,West,278,0.0,3.0,81,0.00,,,0.00,,2013-08-01 11:32:00,
2013-08-01 06:39:00,75.0,69.0,29.87,West,278,0.0,3.0,81,0.00,,,0.00,,2013-08-01 11:39:00,
2013-08-01 06:47:00,75.0,69.0,29.87,West,278,0.0,3.0,81,0.00,,,0.00,,2013-08-01 11:47:00,
2013-08-01 07:07:00,75.0,69.0,29.89,SW,214,0.0,3.0,82,0.00,,,0.00,,2013-08-01 12:07:00,
2013-08-01 07:19:00,74.0,68.0,29.89,West,269,0.0,3.0,83,0.00,,,0.00,,2013-08-01 12:19:00,
2013-08-01 07:30:00,74.0,68.0,29.89,West,262,1.0,4.0,82,0.00,,,0.00,,2013-08-01 12:30:00,
2013-08-01 08:10:00,78.0,71.0,29.90,SW,235,0.0,3.0,78,0.00,,,0.00,,2013-08-01 13:10:00,
2013-08-01 08:19:00,78.0,71.0,29.90,SW,235,0.0,3.0,78,0.00,,,0.00,,2013-08-01 13:19:00,
2013-08-01 08:28:00,78.0,70.0,29.90,SSW,202,0.0,3.0,76,0.00,,,0.00,,2013-08-01 13:28:00,
2013-08-01 08:39:00,78.0,70.0,29.90,SSW,202,0.0,3.0,76,0.00,,,0.00,,2013-08-01 13:39:00,
2013-08-01 09:06:00,81.0,71.0,29.89,WSW,256,1.0,5.0,72,0.00,,,0.00,,2013-08-01 14:06:00,
2013-08-01 10:28:00,87.0,72.0,29.90,SSE,162,0.0,4.0,62,0.00,,,0.00,,2013-08-01 15:28:00,
2013-08-01 11:27:00,90.0,71.0,29.90,WSW,253,1.0,4.0,53,0.00,,,0.00,,2013-08-01 16:27:00,
2013-08-01 11:37:00,91.0,72.0,29.90,SSE,153,0.0,2.0,54,0.00,,,0.00,,2013-08-01 16:37:00,
2013-08-01 11:47:00,91.0,72.0,29.90,SSE,153,0.0,2.0,54,0.00,,,0.00,,2013-08-01 16:47:00,
2013-08-01 11:56:00,92.0,72.0,29.90,East,95,0.0,5.0,52,0.00,,,0.00,,2013-08-01 16:56:00,
2013-08-01 12:09:00,92.0,72.0,29.90,East,95,0.0,5.0,52,0.00,,,0.00,,2013-08-01 17:09:00,
2013-08-01 12:17:00,93.0,71.0,29.89,SSW,198,0.0,4.0,49,0.00,,,0.00,,2013-08-01 17:17:00,
2013-08-01 12:49:00,94.0,69.0,29.88,NNW,336,1.0,4.0,44,0.00,,,0.00,,2013-08-01 17:49:00,
2013-08-01 12:57:00,95.0,72.0,29.88,SSW,198,0.0,3.0,48,0.00,,,0.00,,2013-08-01 17:57:00,
2013-08-01 13:09:00,96.0,68.0,29.88,SE,143,2.0,6.0,41,0.00,,,0.00,,2013-08-01 18:09:00,
2013-08-01 13:17:00,96.0,68.0,29.88,SE,143,2.0,6.0,41,0.00,,,0.00,,2013-08-01 18:17:00,
2013-08-01 13:30:00,95.0,67.0,29.87,SSW,201,1.0,5.0,40,0.00,,,0.00,,2013-08-01 18:30:00,
2013-08-01 13:37:00,96.0,68.0,29.87,SE,131,1.0,3.0,41,0.00,,,0.00,,2013-08-01 18:37:00,
2013-08-01 14:00:00,96.0,68.0,29.86,East,83,1.0,4.0,40,0.00,,,0.00,,2013-08-01 19:00:00,
2013-08-01 14:06:00,97.0,69.0,29.85,ESE,123,2.0,5.0,40,0.00,,,0.00,,2013-08-01 19:06:00,
2013-08-01 14:18:00,97.0,69.0,29.85,ESE,123,2.0,5.0,40,0.00,,,0.00,,2013-08-01 19:18:00,
2013-08-01 14:29:00,98.0,68.0,29.85,South,184,1.0,3.0,38,0.00,,,0.00,,2013-08-01 19:29:00,
2013-08-01 15:17:00,98.0,66.0,29.83,ESE,120,3.0,7.0,36,0.00,,,0.00,,2013-08-01 20:17:00,
2013-08-01 15:25:00,98.0,67.0,29.82,ESE,122,2.0,10.0,37,0.00,,,0.00,,2013-08-01 20:25:00,
2013-08-01 15:35:00,98.0,69.0,29.82,SW,218,1.0,5.0,39,0.00,,,0.00,,2013-08-01 20:35:00,
2013-08-01 15:58:00,98.0,70.0,29.81,SW,215,2.0,6.0,41,0.00,,,0.00,,2013-08-01 20:58:00,
2013-08-01 16:03:00,98.0,67.0,29.81,SSE,159,4.0,7.0,37,0.00,,,0.00,,2013-08-01 21:03:00,
2013-08-01 16:14:00,98.0,67.0,29.81,SSE,159,4.0,7.0,37,0.00,,,0.00,,2013-08-01 21:14:00,
2013-08-01 16:34:00,98.0,69.0,29.80,SW,222,1.0,9.0,39,0.00,,,0.00,,2013-08-01 21:34:00,
2013-08-01 16:43:00,98.0,69.0,29.80,SW,222,1.0,9.0,39,0.00,,,0.00,,2013-08-01 21:43:00,
2013-08-01 16:53:00,99.0,69.0,29.80,SSW,210,1.0,5.0,38,0.00,,,0.00,,2013-08-01 21:53:00,
2013-08-01 17:06:00,98.0,68.0,29.79,SE,134,3.0,7.0,38,0.00,,,0.00,,2013-08-01 22:06:00,
2013-08-01 17:15:00,98.0,68.0,29.79,SE,134,3.0,7.0,38,0.00,,,0.00,,2013-08-01 22:15:00,
2013-08-01 17:23:00,98.0,67.0,29.79,SSE,153,2.0,4.0,37,0.00,,,0.00,,2013-08-01 22:23:00,
2013-08-01 17:35:00,99.0,68.0,29.78,WSW,240,1.0,5.0,37,0.00,,,0.00,,2013-08-01 22:35:00,
2013-08-01 17:46:00,99.0,68.0,29.78,WSW,240,1.0,5.0,37,0.00,,,0.00,,2013-08-01 22:46:00,
2013-08-01 17:58:00,98.0,67.0,29.78,SE,143,2.0,4.0,37,0.00,,,0.00,,2013-08-01 22:58:00,
2013-08-01 18:06:00,97.0,68.0,29.77,SSW,195,1.0,5.0,39,0.00,,,0.00,,2013-08-01 23:06:00,
2013-08-01 18:15:00,97.0,68.0,29.77,SSW,195,1.0,5.0,39,0.00,,,0.00,,2013-08-01 23:15:00,
2013-08-01 18:25:00,97.0,69.0,29.77,SSW,201,1.0,5.0,40,0.00,,,0.00,,2013-08-01 23:25:00,
2013-08-01 18:32:00,97.0,67.0,29.77,SW,226,1.0,10.0,38,0.00,,,0.00,,2013-08-01 23:32:00,
2013-08-01 18:46:00,97.0,67.0,29.77,SW,226,1.0,10.0,38,0.00,,,0.00,,2013-08-01 23:46:00,
2013-08-01 19:00:00,96.0,67.0,29.76,SSW,207,2.0,8.0,39,0.00,,,0.00,,2013-08-02 00:00:00,
2013-08-01 19:06:00,96.0,66.0,29.76,SSW,204,1.0,6.0,38,0.00,,,0.00,,2013-08-02 00:06:00,
2013-08-01 19:16:00,96.0,66.0,29.76,SSW,204,1.0,6.0,38,0.00,,,0.00,,2013-08-02 00:16:00,
2013-08-01 20:00:00,93.0,66.0,29.77,SSW,207,1.0,3.0,42,0.00,,,0.00,,2013-08-02 01:00:00,
2013-08-01 20:16:00,92.0,67.0,29.76,SSW,212,0.0,2.0,44,0.00,,,0.00,,2013-08-02 01:16:00,
2013-08-01 20:25:00,91.0,67.0,29.77,SSW,195,0.0,0.0,46,0.00,,,0.00,,2013-08-02 01:25:00,
2013-08-01 20:36:00,90.0,68.0,29.77,SSW,195,0.0,0.0,48,0.00,,,0.00,,2013-08-02 01:36:00,
2013-08-01 20:45:00,90.0,68.0,29.77,SSW,195,0.0,0.0,48,0.00,,,0.00,,2013-08-02 01:45:00,
2013-08-01 20:59:00,89.0,67.0,29.78,WSW,240,0.0,2.0,49,0.00,,,0.00,,2013-08-02 01:59:00,
2013-08-01 21:05:00,88.0,68.0,29.78,SW,233,0.0,3.0,51,0.00,,,0.00,,2013-08-02 02:05:00,
2013-08-01 21:15:00,88.0,68.0,29.78,SW,233,0.0,3.0,51,0.00,,,0.00,,2013-08-02 02:15:00,
2013-08-01 21:26:00,87.0,67.0,29.78,SSW,201,2.0,5.0,52,0.00,,,0.00,,2013-08-02 02:26:00,
2013-08-01 21:34:00,87.0,68.0,29.79,WSW,248,1.0,2.0,53,0.00,,,0.00,,2013-08-02 02:34:00,
2013-08-01 21:45:00,87.0,68.0,29.79,WSW,248,1.0,2.0,53,0.00,,,0.00,,2013-08-02 02:45:00,
2013-08-01 21:53:00,87.0,68.0,29.79,WSW,248,1.0,2.0,53,0.00,,,0.00,,2013-08-02 02:53:00,
2013-08-01 22:07:00,86.0,67.0,29.79,SW,233,1.0,3.0,53,0.00,,,0.00,,2013-08-02 03:07:00,
2013-08-01 22:12:00,86.0,67.0,29.79,WSW,238,1.0,3.0,53,0.00,,,0.00,,2013-08-02 03:12:00,
2013-08-01 22:23:00,86.0,67.0,29.79,WSW,238,1.0,3.0,53,0.00,,,0.00,,2013-08-02 03:23:00,
2013-08-01 22:35:00,86.0,67.0,29.80,WSW,253,1.0,3.0,54,0.00,,,0.00,,2013-08-02 03:35:00,
2013-08-01 22:46:00,85.0,66.0,29.80,WSW,249,1.0,3.0,54,0.00,,,0.00,,2013-08-02 03:46:00,
2013-08-01 23:02:00,85.0,67.0,29.80,WSW,248,1.0,3.0,55,0.00,,,0.00,,2013-08-02 04:02:00,
2013-08-01 23:12:00,85.0,67.0,29.80,WSW,238,1.0,3.0,55,0.00,,,0.00,,2013-08-02 04:12:00,
2013-08-01 23:22:00,84.0,67.0,29.80,SSW,211,1.0,3.0,56,0.00,,,0.00,,2013-08-02 04:22:00,
2013-08-01 23:33:00,83.0,66.0,29.80,SW,232,2.0,5.0,57,0.00,,,0.00,,2013-08-02 04:33:00,
2013-08-01 23:43:00,83.0,66.0,29.80,SW,232,2.0,5.0,57,0.00,,,0.00,,2013-08-02 04:43:00,
2013-08-01 23:53:00,83.0,67.0,29.81,WSW,242,2.0,5.0,58,0.00,,,0.00,,2013-08-02 04:53:00,